Location: Aufkirchen
(47.9603°N, 11.3653°E)
Time: 10:35:38
(UTC+01:00)

Tiros 1 - Pass Details

Date: 28 November 2020
Orbit: 630 x 663 km, 48.4° (Epoch: 21 January)

Event Time Altitude Azimuth Distance (km) Brightness Sun altitude
Rises 17:26:46 0° 255° (WSW) 2,988 12.8 -10.0°
Reaches altitude 10° 17:29:07 10° 255° (WSW) 2,075 11.4 -10.4°
Maximum altitude 17:33:55 85° 169° (S) 665 7.2 -11.2°
Enters shadow 17:37:42 16° 81° (E) 1,685 8.6 -11.8°
Drops below altitude 10° 17:38:42 10° 80° (E) 2,063 - -11.9°
Sets 17:41:02 0° 80° (E) 2,970 - -12.3°
